sat.trackr.live / text

‹ back to catalog

STARLINK-37943

NORAD 69666 · 2026-143T

PAYLOAD ACTIVE UNKNOWN

§ Identity

Operator
Country
US
Launch date
2026-06-21
Launch site
AFWTR
Launch vehicle
Mass (kg)
RCS (m²)

Purposes: comms

External: N2YO · Heavens-Above · Gunter

§ Orbital elements

Epoch: 2026-09-20T01:24:15.670944Z

Period
93.91 min
Inclination
97.2853°
Eccentricity
0.0001115
Mean motion
15.33453185 rev/d
Perigee alt
464.8 km
Apogee alt
466.3 km
Semi-major
6,843.7 km
B*
4.5594e-4
RAAN
306.2347°
Arg perigee
97.4339°
Mean anomaly
262.7030°
Rev number
1,507

§ Raw data

STARLINK-379431 69666U 26143T   26263.05851471  .00014677  00000+0  45594-3 0  99932 69666  97.2853 306.2347 0001115  97.4339 262.7030 15.33453185 15078

JSON: /api/v1/satellites/69666 · /tle

For live sub-satellite position, see the globe view (requires WebGL).

§ Visibility from observer

Set your observer location to see the next 7 days of passes ≥ 10°. The values pass through the URL so the page stays shareable.

No JS? Fill the form by hand. The geolocation button needs JavaScript.